This is the latest recevied weather packets stored in our database for station/object SM7SJR-13. If no packets are shown the sender has not sent any weather packets the latest 10 day(s).
| Time | Temp. | Humidity | Pressure | Rain* | Wind** | Luminosity | Snow |
|---|---|---|---|---|---|---|---|
| 1777606204 | 1.67° C | 95% | 1023.7 hPa | 0 mm | - | 11 W/m² | - |
| 1777602604 | 2.22° C | 95% | 1024.1 hPa | 0 mm | - | 0 W/m² | - |
| 1777597204 | 2.78° C | 94% | 1024.4 hPa | 0 mm | - | 0 W/m² | - |
| 1777596304 | 2.78° C | 93% | 1024.3 hPa | 0 mm | - | 0 W/m² | - |
| 1777593603 | 3.33° C | 93% | 1024.5 hPa | 0 mm | - | 0 W/m² | - |
| 1777592704 | 3.33° C | 93% | 1024.6 hPa | 0 mm | - | 0 W/m² | - |
| 1777589103 | 3.89° C | 92% | 1024.9 hPa | 0 mm | - | 0 W/m² | - |
| 1777585504 | 5° C | 91% | 1024.9 hPa | 0 mm | - | 0 W/m² | - |
| 1777580104 | 6.67° C | 87% | 1024.9 hPa | 0 mm | - | 0 W/m² | - |
| 1777573804 | 11.67° C | 74% | 1024.7 hPa | 0 mm | - | 5 W/m² | - |
| 1777569304 | 15.56° C | 59% | 1024.8 hPa | 0 mm | - | 23 W/m² | - |
| 1777565704 | 15.56° C | 58% | 1024.8 hPa | 0 mm | - | 32 W/m² | - |
| 1777561204 | 17.22° C | 56% | 1024.7 hPa | 0 mm | - | 403 W/m² | - |
| 1777560303 | 17.22° C | 54% | 1024.7 hPa | 0 mm | - | 478 W/m² | - |
| 1777558504 | 18.33° C | 49% | 1024.7 hPa | 0 mm | - | 468 W/m² | - |
| 1777554904 | 18.33° C | 48% | 1024.9 hPa | 0 mm | - | 584 W/m² | - |
| 1777553104 | 18.89° C | 47% | 1025 hPa | 0 mm | - | 378 W/m² | - |
| 1777548604 | 20.56° C | 43% | 1024.9 hPa | 0 mm | - | 531 W/m² | - |
| 1777547704 | 21.67° C | 39% | 1024.9 hPa | 0 mm | - | 714 W/m² | - |
| 1777545004 | 20° C | 38% | 1025 hPa | 0 mm | - | 810 W/m² | - |
| 1777540505 | 19.44° C | 43% | 1025.4 hPa | 0 mm | - | 624 W/m² | - |
| 1777536004 | 16.67° C | 47% | 1026 hPa | 0 mm | - | 438 W/m² | - |
| 1777531503 | 12.78° C | 56% | 1026.1 hPa | 0 mm | - | 334 W/m² | - |
| 1777527004 | 10.56° C | 63% | 1026.1 hPa | 0 mm | - | 95 W/m² | - |
| 1777516204 | 6.11° C | 80% | 1026.5 hPa | 0 mm | - | 0 W/m² | - |
* Rain latest hour (hover to see other rain measurements)
** Current wind speed in m/s (hover to see current wind gust speed)